Home   Weather   Ann Arbor   Past weeks

Flag for USA Past Weather in Ann Arbor, Michigan, USA — Yesterday and Last 2 Weeks

Now
60 °F

Clear.


Feels Like: 60 °F
Forecast: 58 / 75 °F
Wind: 8 mph from West

Location: Ann Arbor Municipal Airport

Current Time: Jun 24, 2017 at 6:24:05 am

Latest Report: Jun 24, 2017 at 5:53 am


Visibility: 10 mi

Pressure: 29.78 "Hg

Humidity: 83%

Dew Point: 55 °F

Location of Ann ArborLocation

Past Weather in Ann Arbor — Graph

°F

Ann Arbor Temperature Yesterday

Maximum temperature yesterday: 79 °F (at 12:53 pm)
Minimum temperature yesterday: 57 °F (at 11:53 pm)
Average temperature yesterday: 71 °F

High & Low Weather Summary for the Past Weeks

 TemperatureHumidityPressure
High90 °F (Jun 12, 2:53 pm)100% (Jun 9, 4:12 am)30.02 "Hg (Jun 9, 4:12 am)
Low48 °F (Jun 9, 4:12 am)30% (Jun 10, 4:53 pm)29.56 "Hg (Jun 18, 3:53 pm)
Average71 °F74%29.83 "Hg
* Reported Jun 9 4:12 am — Jun 24 4:53 am, Ann Arbor. Weather by CustomWeather, © 2017

Note: Actual official high and low records may vary slightly from our data, if they occured in-between our weather recording intervals... More about our weather records

Advertising

Ann Arbor Weather History for the Previous 24 Hours

Scroll right to see more
 ConditionsComfort  
Time TempWeatherWind HumidityBarometerVisibility
4:53 am
Sat, Jun 24
61 °FPassing clouds.8 mph81%29.76 "Hg10 mi
3:53 am58 °FClear.7 mph87%29.75 "Hg10 mi
2:53 am60 °FPassing clouds.7 mph83%29.74 "Hg10 mi
1:53 am58 °FMostly cloudy.5 mph93%29.75 "Hg10 mi
12:53 am57 °FClear.6 mph96%29.74 "Hg10 mi
11:53 pm
Fri, Jun 23
57 °FClear.5 mph93%29.72 "Hg10 mi
10:53 pm58 °FClear.5 mph93%29.72 "Hg10 mi
9:53 pm64 °FClear.5 mph75%29.68 "Hg10 mi
8:53 pm72 °FSunny.13 mph59%29.65 "Hg10 mi
7:53 pm73 °FSunny.7 mph69%29.63 "Hg10 mi
6:53 pm75 °FSunny.12 mph69%29.62 "Hg10 mi
5:53 pm75 °FSunny.12 mph71%29.62 "Hg10 mi
4:53 pm75 °FScattered clouds.13 mph71%29.61 "Hg10 mi
3:53 pm75 °FOvercast.15 mph76%29.60 "Hg10 mi
2:53 pm77 °FOvercast.10 mph69%29.59 "Hg10 mi
1:53 pm78 °FPassing clouds.9 mph66%29.59 "Hg10 mi
12:53 pm79 °FSunny.6 mph77%29.57 "Hg10 mi
11:53 am74 °FPassing clouds.7 mph88%29.57 "Hg10 mi
10:53 am70 °FScattered clouds.No wind93%29.61 "Hg10 mi
10:29 am69 °FLight rain. Fog.5 mph96%29.63 "Hg5 mi
9:58 am72 °FLight rain. Fog.7 mph100%29.63 "Hg3 mi
8:53 am72 °FLow clouds.10 mph100%29.60 "Hg10 mi
7:53 am70 °FLight rain. Mostly cloudy.6 mph100%29.61 "Hg8 mi
7:14 am70 °FLight rain. Fog.7 mph100%29.64 "Hg6 mi
7:02 am70 °FRain. Fog.7 mph100%29.64 "Hg2 mi
6:53 am71 °FOvercast.7 mph93%29.62 "Hg10 mi
Weather by CustomWeather, © 2017

See weather overviewHow to use our weather pages